UCG7244 MROC-MNMG

Flight info

Callsign UCG7244
Flight time 0h 49m
Altitude 20000
Route NANJO4U ULAPO UA502 LISPA
Aircraft B722/M-SDFGHRWY/C

Departure

Time 2026-05-06 22:48
Airport Juan Santamaría International Airport (MROC)

Arrival

Time 2026-05-06 23:37
Airport Augusto C. Sandino (Managua) International Airport (MNMG)
Time Latitude Longitude Altitude Speed Heading
2026-05-06 22:38 9.99465 -84.21136 2998 ft 0 kts 159°
2026-05-06 22:39 9.99479 -84.21142 2998 ft 4 kts 156°
2026-05-06 22:39 9.99503 -84.21154 2998 ft 4 kts 149°
2026-05-06 22:39 9.99525 -84.21170 2998 ft 4 kts 140°
2026-05-06 22:40 9.99533 -84.21176 2998 ft 0 kts 137°
2026-05-06 22:44 9.99527 -84.21170 2998 ft 5 kts 131°
2026-05-06 22:44 9.99505 -84.21110 3000 ft 13 kts 94°
2026-05-06 22:44 9.99512 -84.21037 3003 ft 17 kts 78°
2026-05-06 22:44 9.99492 -84.20905 3008 ft 13 kts 94°
2026-05-06 22:45 9.99497 -84.20847 3013 ft 12 kts 83°
2026-05-06 22:45 9.99520 -84.20778 3013 ft 10 kts 63°
2026-05-06 22:45 9.99550 -84.20719 3015 ft 9 kts 63°
2026-05-06 22:45 9.99572 -84.20665 3020 ft 9 kts 72°
2026-05-06 22:46 9.99598 -84.20587 3024 ft 15 kts 70°
2026-05-06 22:46 9.99645 -84.20462 3028 ft 23 kts 69°
2026-05-06 22:46 9.99711 -84.20287 3035 ft 30 kts 69°
2026-05-06 22:46 9.99786 -84.20086 3040 ft 28 kts 69°
2026-05-06 22:47 9.99757 -84.20008 3043 ft 13 kts 181°
2026-05-06 22:47 9.99678 -84.20119 3039 ft 44 kts 250°
2026-05-06 22:47 9.99491 -84.20615 3022 ft 105 kts 248°
2026-05-06 22:47 9.99165 -84.21483 2996 ft 153 kts 250°
2026-05-06 22:48 9.98755 -84.22574 3192 ft 179 kts 250°
2026-05-06 22:48 9.98374 -84.23758 3833 ft 180 kts 256°
2026-05-06 22:48 9.98042 -84.25113 4033 ft 219 kts 261°
2026-05-06 22:48 9.97781 -84.26647 4957 ft 221 kts 258°
2026-05-06 22:49 9.97072 -84.28037 5855 ft 228 kts 232°
2026-05-06 22:49 9.96125 -84.29320 6710 ft 233 kts 238°
2026-05-06 22:49 9.95410 -84.30793 7595 ft 235 kts 250°
2026-05-06 22:49 9.94868 -84.32369 8464 ft 239 kts 251°
2026-05-06 22:50 9.94281 -84.33964 9334 ft 243 kts 248°
2026-05-06 22:50 9.93639 -84.35559 10181 ft 246 kts 248°
2026-05-06 22:50 9.92989 -84.37186 10919 ft 251 kts 248°
2026-05-06 22:50 9.92339 -84.38849 11675 ft 255 kts 249°
2026-05-06 22:51 9.91682 -84.40534 12427 ft 259 kts 248°
2026-05-06 22:51 9.91010 -84.42246 13169 ft 263 kts 248°
2026-05-06 22:51 9.90326 -84.43987 13883 ft 267 kts 248°
2026-05-06 22:51 9.89635 -84.45745 14537 ft 270 kts 248°
2026-05-06 22:52 9.88980 -84.47541 15171 ft 273 kts 260°
2026-05-06 22:52 9.89033 -84.49447 15759 ft 273 kts 289°
2026-05-06 22:52 9.89793 -84.51211 16358 ft 274 kts 304°
2026-05-06 22:52 9.90956 -84.52737 16967 ft 273 kts 324°
2026-05-06 22:53 9.92628 -84.53588 17553 ft 271 kts 346°
2026-05-06 22:53 9.94472 -84.54018 18111 ft 275 kts 345°
2026-05-06 22:53 9.96201 -84.54877 18647 ft 280 kts 328°
2026-05-06 22:53 9.97809 -84.56002 19173 ft 282 kts 328°
2026-05-06 22:54 9.99479 -84.57067 19686 ft 284 kts 333°
2026-05-06 22:54 10.01245 -84.58031 19926 ft 299 kts 335°
2026-05-06 22:54 10.03157 -84.59068 19957 ft 324 kts 334°
2026-05-06 22:54 10.05193 -84.60241 19955 ft 349 kts 332°
2026-05-06 22:55 10.07371 -84.61512 19951 ft 374 kts 333°
2026-05-06 22:55 10.09712 -84.62846 19950 ft 397 kts 333°
2026-05-06 22:55 10.12193 -84.64246 19949 ft 420 kts 333°
2026-05-06 22:55 10.14799 -84.65733 19952 ft 440 kts 332°
2026-05-06 22:56 10.17518 -84.67296 19949 ft 457 kts 332°
2026-05-06 22:56 10.20340 -84.68911 19948 ft 473 kts 332°
2026-05-06 22:56 10.23187 -84.70533 19940 ft 475 kts 332°
2026-05-06 22:56 10.26103 -84.72198 19951 ft 476 kts 332°
2026-05-06 22:57 10.28983 -84.73850 19943 ft 475 kts 332°
2026-05-06 22:57 10.31865 -84.75498 19942 ft 475 kts 332°
2026-05-06 22:57 10.34745 -84.77144 19941 ft 475 kts 332°
2026-05-06 22:57 10.37623 -84.78789 19946 ft 475 kts 332°
2026-05-06 22:58 10.40508 -84.80441 19940 ft 475 kts 332°
2026-05-06 22:58 10.43388 -84.82090 19939 ft 475 kts 332°
2026-05-06 22:58 10.46269 -84.83738 19937 ft 475 kts 332°
2026-05-06 22:58 10.49146 -84.85385 19940 ft 475 kts 332°
2026-05-06 22:59 10.52026 -84.87034 19940 ft 476 kts 332°
2026-05-06 22:59 10.54905 -84.88684 19938 ft 475 kts 332°
2026-05-06 22:59 10.57785 -84.90334 19935 ft 475 kts 332°
2026-05-06 22:59 10.60630 -84.91962 19932 ft 475 kts 332°
2026-05-06 23:00 10.63512 -84.93614 19926 ft 475 kts 332°
2026-05-06 23:00 10.66396 -84.95267 19929 ft 476 kts 332°
2026-05-06 23:00 10.69282 -84.96920 19931 ft 476 kts 332°
2026-05-06 23:00 10.72158 -84.98571 19931 ft 475 kts 332°
2026-05-06 23:01 10.75038 -85.00224 19926 ft 475 kts 332°
2026-05-06 23:01 10.77924 -85.01878 19926 ft 476 kts 332°
2026-05-06 23:01 10.80803 -85.03530 19926 ft 476 kts 332°
2026-05-06 23:01 10.83688 -85.05186 19919 ft 476 kts 333°
2026-05-06 23:02 10.86568 -85.06839 19916 ft 476 kts 332°
2026-05-06 23:02 10.89448 -85.08492 19915 ft 475 kts 332°
2026-05-06 23:02 10.92331 -85.10147 19913 ft 476 kts 332°
2026-05-06 23:02 10.95210 -85.11801 19919 ft 475 kts 332°
2026-05-06 23:03 10.98088 -85.13454 19919 ft 475 kts 332°
2026-05-06 23:03 11.00758 -85.14989 19915 ft 475 kts 332°
2026-05-06 23:03 11.03631 -85.16654 19915 ft 475 kts 331°
2026-05-06 23:03 11.06319 -85.18632 19903 ft 478 kts 322°
2026-05-06 23:04 11.08800 -85.20886 19905 ft 479 kts 317°
2026-05-06 23:04 11.11146 -85.23299 19904 ft 480 kts 316°
2026-05-06 23:04 11.13508 -85.25686 19901 ft 479 kts 319°
2026-05-06 23:04 11.15993 -85.27948 19901 ft 478 kts 321°
2026-05-06 23:05 11.18482 -85.30193 19903 ft 479 kts 319°
2026-05-06 23:05 11.20890 -85.32535 19899 ft 479 kts 317°
2026-05-06 23:05 11.23275 -85.34909 19902 ft 479 kts 318°
2026-05-06 23:05 11.25705 -85.37206 19896 ft 478 kts 320°
2026-05-06 23:06 11.27903 -85.39225 19897 ft 479 kts 319°
2026-05-06 23:06 11.30340 -85.41532 19895 ft 479 kts 318°
2026-05-06 23:06 11.32747 -85.43885 19893 ft 479 kts 318°
2026-05-06 23:06 11.35174 -85.46220 19892 ft 479 kts 319°
2026-05-06 23:07 11.37329 -85.48240 19891 ft 479 kts 319°
2026-05-06 23:07 11.39784 -85.50535 19890 ft 479 kts 319°
2026-05-06 23:07 11.42264 -85.52799 19890 ft 479 kts 321°
2026-05-06 23:07 11.44801 -85.55002 19883 ft 479 kts 321°
2026-05-06 23:08 11.47301 -85.57178 19886 ft 480 kts 321°
2026-05-06 23:08 11.49794 -85.59432 19884 ft 480 kts 320°
2026-05-06 23:08 11.52287 -85.61697 19884 ft 479 kts 320°
2026-05-06 23:08 11.54800 -85.63917 19883 ft 477 kts 321°
2026-05-06 23:09 11.57325 -85.66133 19880 ft 480 kts 321°
2026-05-06 23:09 11.59837 -85.68381 19879 ft 480 kts 320°
2026-05-06 23:09 11.62320 -85.70623 19874 ft 480 kts 320°
2026-05-06 23:09 11.64831 -85.72860 19877 ft 480 kts 321°
2026-05-06 23:10 11.67353 -85.75090 19877 ft 480 kts 321°
2026-05-06 23:10 11.69864 -85.77331 19874 ft 479 kts 320°
2026-05-06 23:10 11.72364 -85.79578 19871 ft 480 kts 321°
2026-05-06 23:10 11.74876 -85.81824 19870 ft 480 kts 321°
2026-05-06 23:11 11.77397 -85.84063 19867 ft 480 kts 321°
2026-05-06 23:11 11.79905 -85.86302 19862 ft 480 kts 321°
2026-05-06 23:11 11.82411 -85.88550 19864 ft 479 kts 321°
2026-05-06 23:11 11.84916 -85.90791 19862 ft 479 kts 321°
2026-05-06 23:12 11.87432 -85.93034 19859 ft 480 kts 321°
2026-05-06 23:12 11.89940 -85.95276 19855 ft 479 kts 321°
2026-05-06 23:12 11.92447 -85.97523 19852 ft 479 kts 321°
2026-05-06 23:12 11.94918 -85.99736 19851 ft 479 kts 321°
2026-05-06 23:13 11.97433 -86.01982 19849 ft 479 kts 321°
2026-05-06 23:13 11.99939 -86.04224 19849 ft 480 kts 321°
2026-05-06 23:13 12.02451 -86.06477 19849 ft 480 kts 321°
2026-05-06 23:13 12.04959 -86.08724 19849 ft 480 kts 321°
2026-05-06 23:14 12.07469 -86.10971 19853 ft 480 kts 321°
2026-05-06 23:14 12.09956 -86.13246 19853 ft 481 kts 317°
2026-05-06 23:14 12.12079 -86.15895 19845 ft 484 kts 305°
2026-05-06 23:14 12.13685 -86.18923 19842 ft 487 kts 294°
2026-05-06 23:15 12.14704 -86.22230 19841 ft 488 kts 283°
2026-05-06 23:15 12.15288 -86.25647 19847 ft 489 kts 278°
2026-05-06 23:15 12.15628 -86.29102 19847 ft 489 kts 275°
2026-05-06 23:15 12.15876 -86.32572 19847 ft 489 kts 276°
2026-05-06 23:16 12.16275 -86.36018 19844 ft 489 kts 279°
2026-05-06 23:16 12.16776 -86.39431 19844 ft 488 kts 279°
2026-05-06 23:16 12.17184 -86.42877 19842 ft 489 kts 276°
2026-05-06 23:16 12.17494 -86.46334 19840 ft 488 kts 276°
2026-05-06 23:17 12.17859 -86.49785 19841 ft 488 kts 278°
2026-05-06 23:17 12.18304 -86.53213 19843 ft 488 kts 278°
2026-05-06 23:17 12.18726 -86.56667 19845 ft 488 kts 277°
2026-05-06 23:17 12.19073 -86.60071 19847 ft 488 kts 276°
2026-05-06 23:18 12.19433 -86.63520 19849 ft 488 kts 277°
2026-05-06 23:18 12.19845 -86.66967 19850 ft 488 kts 278°
2026-05-06 23:18 12.20259 -86.70411 19851 ft 489 kts 277°
2026-05-06 23:18 12.20635 -86.73867 19853 ft 489 kts 277°
2026-05-06 23:19 12.21001 -86.77324 19860 ft 489 kts 277°
2026-05-06 23:19 12.21394 -86.80775 19858 ft 489 kts 277°
2026-05-06 23:19 12.21799 -86.84230 19861 ft 489 kts 277°
2026-05-06 23:19 12.22194 -86.87680 19860 ft 489 kts 278°
2026-05-06 23:20 12.22967 -86.91055 19856 ft 487 kts 290°
2026-05-06 23:20 12.24339 -86.94205 19857 ft 486 kts 301°
2026-05-06 23:20 12.26249 -86.97042 19859 ft 482 kts 311°
2026-05-06 23:20 12.28608 -86.99458 19861 ft 480 kts 322°
2026-05-06 23:21 12.31338 -87.01386 19863 ft 476 kts 333°
2026-05-06 23:21 12.34335 -87.02774 19863 ft 472 kts 343°
2026-05-06 23:21 12.37514 -87.03591 19869 ft 469 kts 353°
2026-05-06 23:21 12.40750 -87.03818 19869 ft 466 kts
2026-05-06 23:22 12.43961 -87.03463 19871 ft 463 kts 13°
2026-05-06 23:22 12.47032 -87.02550 19876 ft 460 kts 23°
2026-05-06 23:22 12.49861 -87.01131 19869 ft 457 kts 33°
2026-05-06 23:22 12.52418 -86.99220 19995 ft 450 kts 43°
2026-05-06 23:23 12.54604 -86.96948 20257 ft 440 kts 50°
2026-05-06 23:23 12.56353 -86.94422 18654 ft 439 kts 62°
2026-05-06 23:23 12.57632 -86.91568 17272 ft 439 kts 70°
2026-05-06 23:23 12.58444 -86.88614 16189 ft 427 kts 79°
2026-05-06 23:24 12.58777 -86.85620 15000 ft 420 kts 88°
2026-05-06 23:24 12.58641 -86.82652 13900 ft 414 kts 96°
2026-05-06 23:24 12.58071 -86.79802 12735 ft 408 kts 105°
2026-05-06 23:24 12.57093 -86.77100 11654 ft 401 kts 113°
2026-05-06 23:25 12.55753 -86.74629 10578 ft 396 kts 121°
2026-05-06 23:25 12.54079 -86.72408 9553 ft 391 kts 130°
2026-05-06 23:25 12.52137 -86.70475 8384 ft 388 kts 137°
2026-05-06 23:25 12.50065 -86.68739 7275 ft 384 kts 140°
2026-05-06 23:26 12.47937 -86.67091 6218 ft 380 kts 141°
2026-05-06 23:26 12.45860 -86.65453 5223 ft 373 kts 140°
2026-05-06 23:26 12.43878 -86.63805 4343 ft 363 kts 139°
2026-05-06 23:26 12.41921 -86.62177 3256 ft 362 kts 141°
2026-05-06 23:27 12.39954 -86.60607 2324 ft 355 kts 142°
2026-05-06 23:27 12.38021 -86.59069 1621 ft 345 kts 142°
2026-05-06 23:27 12.36228 -86.57604 1608 ft 315 kts 142°
2026-05-06 23:27 12.34586 -86.56259 1596 ft 290 kts 142°
2026-05-06 23:28 12.33076 -86.55012 1577 ft 269 kts 137°
2026-05-06 23:28 12.32181 -86.53440 1589 ft 251 kts 107°
2026-05-06 23:28 12.31893 -86.51735 1592 ft 236 kts 99°
2026-05-06 23:28 12.31706 -86.50083 1571 ft 232 kts 98°
2026-05-06 23:29 12.31525 -86.48449 1595 ft 232 kts 98°
2026-05-06 23:29 12.31345 -86.46814 1597 ft 231 kts 98°
2026-05-06 23:29 12.31226 -86.45734 1603 ft 228 kts 98°
2026-05-06 23:29 12.31048 -86.44125 1595 ft 226 kts 98°
2026-05-06 23:30 12.30875 -86.42527 1636 ft 224 kts 97°
2026-05-06 23:30 12.30658 -86.40461 2248 ft 223 kts 97°
2026-05-06 23:30 12.30492 -86.38876 2686 ft 221 kts 97°
2026-05-06 23:30 12.30300 -86.37293 2980 ft 232 kts 102°
2026-05-06 23:31 12.29648 -86.35825 2991 ft 226 kts 123°
2026-05-06 23:31 12.28704 -86.34541 2996 ft 226 kts 127°
2026-05-06 23:31 12.27743 -86.33275 3001 ft 225 kts 128°
2026-05-06 23:31 12.26572 -86.32285 2998 ft 215 kts 153°
2026-05-06 23:32 12.25166 -86.31802 2730 ft 214 kts 162°
2026-05-06 23:32 12.23771 -86.31411 2440 ft 201 kts 163°
2026-05-06 23:32 12.22441 -86.31011 1647 ft 191 kts 161°
2026-05-06 23:32 12.21323 -86.30686 1556 ft 150 kts 162°
2026-05-06 23:33 12.20310 -86.30303 1579 ft 159 kts 150°
2026-05-06 23:33 12.19405 -86.29668 1579 ft 159 kts 144°
2026-05-06 23:33 12.18420 -86.29187 1593 ft 161 kts 158°
2026-05-06 23:33 12.17392 -86.28792 1595 ft 158 kts 155°
2026-05-06 23:34 12.16366 -86.28374 1594 ft 157 kts 155°
2026-05-06 23:34 12.15332 -86.27937 1575 ft 162 kts 146°
2026-05-06 23:34 12.14884 -86.27080 1531 ft 132 kts 82°
2026-05-06 23:34 12.15071 -86.26486 1588 ft 136 kts 75°
2026-05-06 23:35 12.15147 -86.25534 1601 ft 132 kts 101°
2026-05-06 23:35 12.15001 -86.24570 1460 ft 135 kts 98°
2026-05-06 23:35 12.14942 -86.23933 1351 ft 139 kts 98°
2026-05-06 23:36 12.14673 -86.21465 924 ft 127 kts 98°
2026-05-06 23:36 12.14566 -86.20496 761 ft 137 kts 97°
2026-05-06 23:36 12.14460 -86.19544 564 ft 134 kts 97°
2026-05-06 23:36 12.14363 -86.18628 405 ft 133 kts 96°
2026-05-06 23:37 12.14252 -86.17702 245 ft 126 kts 98°
2026-05-06 23:37 12.14164 -86.16935 206 ft 86 kts 96°
2026-05-06 23:37 12.14118 -86.16496 214 ft 42 kts 96°
2026-05-06 23:37 12.14103 -86.16349 212 ft 21 kts 97°
2026-05-06 23:38 12.14078 -86.16143 215 ft 23 kts 96°
2026-05-06 23:38 12.14060 -86.15970 206 ft 26 kts 96°
2026-05-06 23:38 12.14061 -86.15826 207 ft 11 kts 108°
2026-05-06 23:38 12.14014 -86.15824 208 ft 7 kts 268°
2026-05-06 23:39 12.14036 -86.15884 216 ft 13 kts 292°
2026-05-06 23:39 12.14066 -86.16005 206 ft 22 kts 274°
2026-05-06 23:39 12.14086 -86.16191 207 ft 30 kts 277°
2026-05-06 23:39 12.14113 -86.16433 205 ft 38 kts 276°
2026-05-06 23:40 12.14156 -86.16587 211 ft 17 kts 325°
2026-05-06 23:40 12.14186 -86.16603 213 ft 0 kts 336°
2026-05-06 23:40 12.14188 -86.16604 213 ft 2 kts 336°
2026-05-06 23:41 12.14231 -86.16624 209 ft 12 kts 335°
2026-05-06 23:41 12.14280 -86.16718 205 ft 21 kts 276°
2026-05-06 23:41 12.14302 -86.16898 208 ft 30 kts 276°
2026-05-06 23:41 12.14326 -86.17106 205 ft 25 kts 275°
2026-05-06 23:42 12.14337 -86.17228 207 ft 13 kts 276°
2026-05-06 23:42 12.14399 -86.17299 211 ft 15 kts 319°
2026-05-06 23:42 12.14426 -86.17405 205 ft 17 kts 277°
2026-05-06 23:42 12.14440 -86.17541 206 ft 15 kts 266°
2026-05-06 23:43 12.14383 -86.17562 216 ft 11 kts 118°
2026-05-06 23:43 12.14366 -86.17473 206 ft 17 kts 97°
2026-05-06 23:43 12.14350 -86.17328 205 ft 17 kts 96°
2026-05-06 23:43 12.14352 -86.17240 213 ft 9 kts 52°
2026-05-06 23:44 12.14397 -86.17225 212 ft 1 kts 23°
2026-05-06 23:44 12.14405 -86.17222 209 ft 0 kts 21°